331P/Gibbs (2005)

Japanese version
Home page
Updated on February 27, 2016

---------------------------------------------------------------------

* Profile

* Orbital Elements

Epoch 2005 Jan. 30.0 TT = JDT 2453400.5
T 2005 Jan. 10.01552 TT                                 MPCW
q   2.8637047            (2000.0)            P               Q
n   0.18933448     Peri.  176.93533     +0.82775306     -0.55170455
a   3.0036518      Node   217.14847     +0.51112597     +0.81656966
e   0.0465923      Incl.    9.74453     +0.23146301     +0.16981188
P   5.21
From 106 observations 2004 Aug. 26-2013 May 12, mean residual 0".6.

* Magnitudes Graph

        m1 = 15.0 + 5 log d + 10.0 log r

---------------------------------------------------------------------

The orbital elements are published on M.P.E.C. 2015-K139.
The magnitudes graphs are made with Comet for Windows.

---------------------------------------------------------------------

Copyright(C) Seiichi Yoshida (comet@aerith.net). All rights reserved.